Location: Unspecified
(40.7945°N, 0.0000°E)
Time: 15:25:29
(UTC+00:00)

Vanguard 1 - All Passes

Search period start: 23 January 2021 00:00
Search period end: 02 February 2021 00:00
Orbit: 648 x 3834 km, 34.3° (Epoch: 23 January)

Date Brightness Start Highest point End Pass type
(mag) Time Alt. Az. Time Alt. Az. Time Alt. Az.
23 Jan - 09:34:27 10° SSE 09:42:03 15° ESE 09:51:08 10° E daylight
23 Jan - 11:47:08 10° SSW 12:03:02 45° SE 12:24:13 10° E daylight
23 Jan - 14:07:32 10° WSW 14:28:07 69° SSE 14:50:33 10° E daylight
23 Jan - 16:31:52 10° W 16:55:07 70° SSW 17:14:03 10° ESE daylight
23 Jan - 18:58:58 10° W 19:19:45 45° SW 19:34:00 10° SSE visible
23 Jan - 21:32:09 10° W 21:40:08 14° WSW 21:46:42 10° SSW visible
24 Jan - 09:51:43 10° S 10:02:03 21° SE 10:15:31 10° E daylight
24 Jan - 12:07:15 10° SW 12:23:45 52° SSE 12:45:53 10° E daylight
24 Jan - 14:28:30 10° WSW 14:49:31 72° S 15:11:49 10° E daylight
24 Jan - 16:53:15 10° W 17:16:24 66° SSW 17:34:51 10° ESE visible
24 Jan - 19:20:52 10° W 19:40:14 38° SW 19:53:51 10° SSE visible
25 Jan - 10:10:21 10° S 10:22:08 28° SE 10:38:30 10° E daylight
25 Jan - 12:27:36 10° SW 12:44:39 59° SSE 13:07:27 10° E daylight
25 Jan - 14:49:35 10° WSW 15:10:58 73° S 15:33:02 10° E daylight
25 Jan - 17:14:41 10° W 17:37:32 61° SSW 17:55:29 10° SE visible
25 Jan - 19:43:05 10° W 20:00:33 31° SW 20:13:16 10° S visible
26 Jan - 10:29:40 10° SSW 10:42:23 36° SE 11:00:51 10° E daylight
26 Jan - 12:48:11 10° WSW 13:05:43 65° SSE 13:28:56 10° E daylight
26 Jan - 15:10:45 10° W 15:32:25 72° S 15:54:10 10° ESE daylight
26 Jan - 17:36:11 10° W 17:58:30 54° SSW 18:15:55 10° SE visible
26 Jan - 20:05:51 10° W 20:20:42 23° SW 20:32:06 10° S visible
27 Jan - 08:38:14 10° SE 08:42:51 12° ESE 08:48:12 10° ESE daylight
27 Jan - 10:49:26 10° SSW 11:02:47 43° SE 11:22:49 10° E daylight
27 Jan - 13:08:56 10° WSW 13:26:57 69° SSE 13:50:22 10° E daylight
27 Jan - 15:31:58 10° W 15:53:50 70° SSW 16:15:12 10° ESE daylight
27 Jan - 17:57:48 10° W 18:19:18 47° SW 18:36:05 10° SSE visible
27 Jan - 20:29:43 10° W 20:40:45 17° SW 20:49:50 10° SSW visible
28 Jan - 08:54:47 10° SSE 09:02:46 18° SE 09:13:23 10° E daylight
28 Jan - 11:09:30 10° SW 11:23:24 51° SSE 11:44:36 10° E daylight
28 Jan - 13:29:48 10° WSW 13:48:17 72° S 14:11:46 10° E daylight
28 Jan - 15:53:14 10° W 16:15:10 66° SSW 16:36:05 10° ESE daylight
28 Jan - 18:19:35 10° W 18:39:54 40° SW 18:55:57 10° SSE visible
28 Jan - 20:57:32 10° WSW 21:00:44 11° WSW 21:03:45 10° SW visible
29 Jan - 09:13:17 10° S 09:22:47 25° SE 09:36:34 10° E daylight
29 Jan - 11:29:50 10° SW 11:44:11 58° SSE 12:06:15 10° E daylight
29 Jan - 13:50:47 10° WSW 14:09:41 73° S 14:33:07 10° E daylight
29 Jan - 16:14:33 10° W 16:36:23 61° SSW 16:56:47 10° SE daylight
29 Jan - 18:41:41 10° W 19:00:21 32° SW 19:15:23 10° S visible
30 Jan - 09:32:33 10° SSW 09:42:56 33° SE 09:58:59 10° E daylight
30 Jan - 11:50:22 10° WSW 12:05:10 64° SSE 12:27:51 10° E daylight
30 Jan - 14:11:49 10° W 14:31:06 72° S 14:54:22 10° ESE daylight
30 Jan - 16:35:55 10° W 16:57:27 55° SSW 17:17:15 10° SE daylight
30 Jan - 19:04:19 10° W 19:20:39 25° SW 19:34:13 10° S visible
31 Jan - 09:52:18 10° SSW 10:03:15 40° SE 10:21:01 10° E daylight
31 Jan - 12:11:03 10° WSW 12:26:17 68° SSE 12:49:24 10° E daylight
31 Jan - 14:32:55 10° W 14:52:31 70° S 15:15:30 10° ESE daylight
31 Jan - 16:57:24 10° W 17:18:21 48° SSW 17:37:27 10° SSE daylight
31 Jan - 19:27:54 10° W 19:40:51 19° SW 19:52:03 10° SSW visible
01 Feb - 07:58:32 10° SSE 08:04:06 15° SE 08:11:13 10° E daylight
01 Feb - 10:12:21 10° SW 10:23:46 48° SSE 10:42:51 10° E daylight
01 Feb - 12:31:50 10° WSW 12:47:32 71° S 13:10:55 10° E daylight
01 Feb - 14:54:04 10° W 15:13:51 66° SSW 15:36:29 10° ESE daylight
01 Feb - 17:19:05 10° W 17:39:06 40° SW 17:57:18 10° SSE visible
01 Feb - 19:54:05 10° WSW 20:00:59 12° WSW 20:07:24 10° SW visible
